Year,Month,Day,Hour,Minute,Value (Times are PST for temperature in C)
2012,08,20,08,24,14.60
2012,08,20,08,25,14.70
2012,08,20,08,26,14.70
2012,08,20,08,27,14.80
2012,08,20,08,28,14.80
2012,08,20,08,29,14.90
2012,08,20,08,30,14.90
2012,08,20,08,31,15.00
2012,08,20,08,32,15.00
2012,08,20,08,33,15.10
2012,08,20,08,34,15.10
2012,08,20,08,35,15.20
2012,08,20,08,36,15.30
2012,08,20,08,37,15.30
2012,08,20,08,38,15.30
2012,08,20,08,39,15.40
2012,08,20,08,40,15.40
2012,08,20,08,41,15.50
2012,08,20,08,42,15.50
2012,08,20,08,43,15.50
2012,08,20,08,44,15.60
2012,08,20,08,45,15.60
2012,08,20,08,46,15.70
2012,08,20,08,47,15.80
2012,08,20,08,48,15.80
2012,08,20,08,49,15.80
2012,08,20,08,50,15.90
2012,08,20,08,51,15.90
2012,08,20,08,52,16.00
2012,08,20,08,53,16.10
2012,08,20,08,54,16.10
2012,08,20,08,55,16.20
2012,08,20,08,56,16.20
2012,08,20,08,57,16.30
2012,08,20,08,58,16.30
2012,08,20,08,59,16.30
2012,08,20,09,00,16.40
2012,08,20,09,01,16.30
2012,08,20,09,02,16.30
2012,08,20,09,03,16.40
2012,08,20,09,04,16.40
2012,08,20,09,05,16.40
2012,08,20,09,06,16.40
2012,08,20,09,07,16.40
2012,08,20,09,08,16.40
2012,08,20,09,09,16.40
2012,08,20,09,10,16.40
2012,08,20,09,11,16.40
2012,08,20,09,12,16.50
2012,08,20,09,13,16.60
2012,08,20,09,14,16.60
2012,08,20,09,15,16.60
2012,08,20,09,16,16.60
2012,08,20,09,17,16.70
2012,08,20,09,18,16.70
2012,08,20,09,19,16.70
2012,08,20,09,20,16.60
2012,08,20,09,21,16.60
2012,08,20,09,22,16.60
2012,08,20,09,23,16.50
2012,08,20,09,24,16.40
2012,08,20,09,25,16.40
2012,08,20,09,26,16.40
2012,08,20,09,27,16.40
2012,08,20,09,28,16.40
2012,08,20,09,29,16.40
2012,08,20,09,30,16.40
2012,08,20,09,31,16.40
2012,08,20,09,32,16.60
2012,08,20,09,33,16.60
2012,08,20,09,34,16.60
2012,08,20,09,35,16.60
2012,08,20,09,36,16.60
2012,08,20,09,37,16.60
2012,08,20,09,38,16.60
2012,08,20,09,39,16.70
2012,08,20,09,40,16.70
2012,08,20,09,41,16.80
2012,08,20,09,42,16.90
2012,08,20,09,43,17.00
2012,08,20,09,44,17.00
2012,08,20,09,45,17.10
2012,08,20,09,46,17.20
2012,08,20,09,47,17.20
2012,08,20,09,48,17.30
2012,08,20,09,49,17.30
2012,08,20,09,50,17.30
2012,08,20,09,51,17.30
2012,08,20,09,52,17.30
2012,08,20,09,53,17.30
2012,08,20,09,54,17.30
2012,08,20,09,55,17.30
2012,08,20,09,56,17.30
2012,08,20,09,57,17.30
2012,08,20,09,58,17.30
2012,08,20,09,59,17.20
2012,08,20,10,00,17.20
2012,08,20,10,01,17.10
2012,08,20,10,02,17.10
2012,08,20,10,03,17.10
2012,08,20,10,04,17.00
2012,08,20,10,05,16.90
2012,08,20,10,06,16.80
2012,08,20,10,07,16.60
2012,08,20,10,08,16.40
2012,08,20,10,09,16.30
2012,08,20,10,10,16.20
2012,08,20,10,11,16.20
2012,08,20,10,12,16.10
2012,08,20,10,13,16.10
2012,08,20,10,14,16.10
2012,08,20,10,15,16.00
2012,08,20,10,16,15.90
2012,08,20,10,17,15.90
2012,08,20,10,18,15.90
2012,08,20,10,19,15.90
2012,08,20,10,20,15.90
2012,08,20,10,21,15.90
2012,08,20,10,22,16.00
2012,08,20,10,23,16.10
2012,08,20,10,24,16.10
2012,08,20,10,25,16.20
2012,08,20,10,26,16.30
2012,08,20,10,27,16.30
2012,08,20,10,28,16.40
2012,08,20,10,29,16.40
2012,08,20,10,30,16.50
2012,08,20,10,31,16.60
2012,08,20,10,32,16.70
2012,08,20,10,33,16.80
2012,08,20,10,34,16.90
2012,08,20,10,35,17.00
2012,08,20,10,36,17.20
2012,08,20,10,37,17.30
2012,08,20,10,38,17.40
2012,08,20,10,39,17.50
2012,08,20,10,40,17.70
2012,08,20,10,41,17.80
2012,08,20,10,42,17.90
2012,08,20,10,43,18.00
2012,08,20,10,44,18.10
2012,08,20,10,45,18.20
2012,08,20,10,46,18.40
2012,08,20,10,47,18.50
2012,08,20,10,48,18.60
2012,08,20,10,49,18.70
2012,08,20,10,50,18.80
2012,08,20,10,51,18.90
2012,08,20,10,52,18.90
2012,08,20,10,53,19.00
2012,08,20,10,54,19.10
2012,08,20,10,55,19.10
2012,08,20,10,56,19.10
2012,08,20,10,57,19.10
2012,08,20,10,58,19.00
2012,08,20,10,59,18.90
2012,08,20,11,00,18.80
2012,08,20,11,01,18.70
2012,08,20,11,02,18.60
2012,08,20,11,03,18.40
2012,08,20,11,04,18.30
2012,08,20,11,05,18.20
2012,08,20,11,06,18.20
2012,08,20,11,07,18.20
2012,08,20,11,08,18.20
2012,08,20,11,09,18.20
2012,08,20,11,10,18.10
2012,08,20,11,11,18.10
2012,08,20,11,12,18.10
2012,08,20,11,13,18.20
2012,08,20,11,14,18.20
2012,08,20,11,15,18.30
2012,08,20,11,16,18.40
2012,08,20,11,17,18.50
2012,08,20,11,18,18.60
2012,08,20,11,19,18.70
2012,08,20,11,20,18.70
2012,08,20,11,21,18.80
2012,08,20,11,22,18.90
2012,08,20,11,23,19.00
2012,08,20,11,24,19.10
2012,08,20,11,25,19.20
2012,08,20,11,26,19.30
2012,08,20,11,27,19.40
2012,08,20,11,28,19.50
2012,08,20,11,29,19.60
2012,08,20,11,30,19.70
2012,08,20,11,31,19.70
2012,08,20,11,32,19.70
2012,08,20,11,33,19.70
2012,08,20,11,34,19.70
2012,08,20,11,35,19.70
2012,08,20,11,36,19.70
2012,08,20,11,37,19.80
2012,08,20,11,38,19.90
2012,08,20,11,39,19.90
2012,08,20,11,40,19.80
2012,08,20,11,41,19.70
2012,08,20,11,42,19.60
2012,08,20,11,43,19.50
2012,08,20,11,44,19.50
2012,08,20,11,45,19.40
2012,08,20,11,46,19.20
2012,08,20,11,47,19.00
2012,08,20,11,48,18.70
2012,08,20,11,49,18.60
2012,08,20,11,50,18.40
2012,08,20,11,51,18.40
2012,08,20,11,52,18.30
2012,08,20,11,53,18.20
2012,08,20,11,54,18.20
2012,08,20,11,55,18.20
2012,08,20,11,56,18.20
2012,08,20,11,57,18.30
2012,08,20,11,58,18.50
2012,08,20,11,59,18.60
2012,08,20,12,00,18.50
2012,08,20,12,01,18.60
2012,08,20,12,02,18.60
2012,08,20,12,03,18.70
2012,08,20,12,04,18.80
2012,08,20,12,05,18.80
2012,08,20,12,06,18.90
2012,08,20,12,07,19.10
2012,08,20,12,08,19.20
2012,08,20,12,09,19.30
2012,08,20,12,10,19.30
2012,08,20,12,11,19.30
2012,08,20,12,12,19.00
2012,08,20,12,13,18.80
2012,08,20,12,14,18.60
2012,08,20,12,15,18.40
2012,08,20,12,16,18.30
2012,08,20,12,17,18.30
2012,08,20,12,18,18.20
2012,08,20,12,19,18.10
2012,08,20,12,20,18.00
2012,08,20,12,21,17.90
2012,08,20,12,22,17.90
2012,08,20,12,23,17.90
2012,08,20,12,24,17.90
2012,08,20,12,25,18.00
2012,08,20,12,26,18.10
2012,08,20,12,27,18.20
2012,08,20,12,28,18.20
2012,08,20,12,29,18.40
2012,08,20,12,30,18.40
2012,08,20,12,31,18.50
2012,08,20,12,32,18.60
2012,08,20,12,33,18.60
2012,08,20,12,34,18.60
2012,08,20,12,35,18.80
2012,08,20,12,36,18.70
2012,08,20,12,37,18.60
2012,08,20,12,38,18.50
2012,08,20,12,39,18.40
2012,08,20,12,40,18.40
2012,08,20,12,41,18.40
2012,08,20,12,42,18.50
2012,08,20,12,43,18.60
2012,08,20,12,44,18.60
2012,08,20,12,45,18.50
2012,08,20,12,46,18.50
2012,08,20,12,47,18.60
2012,08,20,12,48,18.60
2012,08,20,12,49,18.80
2012,08,20,12,50,18.80
2012,08,20,12,51,18.60
2012,08,20,12,52,18.40
2012,08,20,12,53,18.20
2012,08,20,12,54,18.00
2012,08,20,12,55,17.90
2012,08,20,12,56,17.90
2012,08,20,12,57,17.90
2012,08,20,12,58,17.90
2012,08,20,12,59,17.90
2012,08,20,13,00,17.90
2012,08,20,13,01,17.90
2012,08,20,13,02,18.10
2012,08,20,13,03,18.10
2012,08,20,13,04,18.10
2012,08,20,13,05,18.00
2012,08,20,13,06,17.80
2012,08,20,13,07,17.70
2012,08,20,13,08,17.50
2012,08,20,13,09,17.50
2012,08,20,13,10,17.40
2012,08,20,13,11,17.40
2012,08,20,13,12,17.50
2012,08,20,13,13,17.50
2012,08,20,13,14,17.70
2012,08,20,13,15,17.70
2012,08,20,13,16,17.80
2012,08,20,13,17,17.70
2012,08,20,13,18,17.70
2012,08,20,13,19,17.90
2012,08,20,13,20,18.00
2012,08,20,13,21,18.10
2012,08,20,13,22,18.40
2012,08,20,13,23,18.50
2012,08,20,13,24,18.60
2012,08,20,13,25,18.60
2012,08,20,13,26,18.60
2012,08,20,13,27,18.40
2012,08,20,13,28,18.20
2012,08,20,13,29,18.20
2012,08,20,13,30,18.30
2012,08,20,13,31,18.40
2012,08,20,13,32,18.40
2012,08,20,13,33,18.40
2012,08,20,13,34,18.40
2012,08,20,13,35,18.50
2012,08,20,13,36,18.60
2012,08,20,13,37,18.80
2012,08,20,13,38,18.90
2012,08,20,13,39,18.70
2012,08,20,13,40,18.70
2012,08,20,13,41,18.50
2012,08,20,13,42,18.40
2012,08,20,13,43,18.40
2012,08,20,13,44,18.50
2012,08,20,13,45,18.60
2012,08,20,13,46,18.60
2012,08,20,13,47,18.60
2012,08,20,13,48,18.60
2012,08,20,13,49,18.60
2012,08,20,13,50,18.60
2012,08,20,13,51,18.60
2012,08,20,13,52,18.40
2012,08,20,13,53,18.40
2012,08,20,13,54,18.40
2012,08,20,13,55,18.30
2012,08,20,13,56,18.20
2012,08,20,13,57,18.30
2012,08,20,13,58,18.30
2012,08,20,13,59,18.30
2012,08,20,14,00,18.40
2012,08,20,14,01,18.40
2012,08,20,14,02,18.50
2012,08,20,14,03,18.20
2012,08,20,14,04,18.10
2012,08,20,14,05,18.10
2012,08,20,14,06,18.00
2012,08,20,14,07,17.90
2012,08,20,14,08,17.90
2012,08,20,14,09,18.00
2012,08,20,14,10,18.10
2012,08,20,14,11,18.30
2012,08,20,14,12,18.30
2012,08,20,14,13,18.40
2012,08,20,14,14,18.40
2012,08,20,14,15,18.20
2012,08,20,14,16,18.20
2012,08,20,14,17,18.20
2012,08,20,14,18,18.20
2012,08,20,14,19,18.20
2012,08,20,14,20,18.20
2012,08,20,14,21,18.20
2012,08,20,14,22,18.20
2012,08,20,14,23,18.30
2012,08,20,14,24,18.20
2012,08,20,14,25,18.20
2012,08,20,14,26,18.20
2012,08,20,14,27,18.20
2012,08,20,14,28,18.20
2012,08,20,14,29,18.20
2012,08,20,14,30,18.20
2012,08,20,14,31,18.30
2012,08,20,14,32,18.30
2012,08,20,14,33,18.30
2012,08,20,14,34,18.40
2012,08,20,14,35,18.50
2012,08,20,14,36,18.70
2012,08,20,14,37,18.90
2012,08,20,14,38,19.10
2012,08,20,14,39,19.30
2012,08,20,14,40,19.50
2012,08,20,14,41,19.70
2012,08,20,14,42,19.90
2012,08,20,14,43,19.90
2012,08,20,14,44,19.90
2012,08,20,14,45,19.90
2012,08,20,14,46,19.80
2012,08,20,14,47,19.80
2012,08,20,14,48,19.80
2012,08,20,14,49,19.80
2012,08,20,14,50,19.90
2012,08,20,14,51,19.90
2012,08,20,14,52,20.10
2012,08,20,14,53,20.20
2012,08,20,14,54,20.20
2012,08,20,14,55,20.20
2012,08,20,14,56,20.20
2012,08,20,14,57,20.20
2012,08,20,14,58,20.20
2012,08,20,14,59,20.20
2012,08,20,15,00,19.90
2012,08,20,15,01,19.60
2012,08,20,15,02,19.50
2012,08,20,15,03,19.50
2012,08,20,15,04,19.60
2012,08,20,15,05,19.70
2012,08,20,15,06,19.70
2012,08,20,15,07,19.80
2012,08,20,15,08,19.90
2012,08,20,15,09,20.00
2012,08,20,15,10,20.10
2012,08,20,15,11,20.10
2012,08,20,15,12,20.10
2012,08,20,15,13,20.10
2012,08,20,15,14,20.20
2012,08,20,15,15,20.20
2012,08,20,15,16,20.10
2012,08,20,15,17,20.00
2012,08,20,15,18,19.90
2012,08,20,15,19,19.90
2012,08,20,15,20,19.90
2012,08,20,15,21,19.90
2012,08,20,15,22,19.90
2012,08,20,15,23,19.90
2012,08,20,15,24,20.00
2012,08,20,15,25,20.10
2012,08,20,15,26,20.10
2012,08,20,15,27,20.10
2012,08,20,15,28,20.10
2012,08,20,15,29,20.10
2012,08,20,15,30,20.10
2012,08,20,15,31,20.00
2012,08,20,15,32,19.90
2012,08,20,15,33,19.90
2012,08,20,15,34,19.90
2012,08,20,15,35,19.90
2012,08,20,15,36,19.90
2012,08,20,15,37,19.90
2012,08,20,15,38,20.00
2012,08,20,15,39,19.90
2012,08,20,15,40,19.90
2012,08,20,15,41,20.10
2012,08,20,15,42,20.20
2012,08,20,15,43,20.10
2012,08,20,15,44,20.20
2012,08,20,15,45,20.40
2012,08,20,15,46,20.60
2012,08,20,15,47,20.80
2012,08,20,15,48,20.90
2012,08,20,15,49,20.90
2012,08,20,15,50,21.10
2012,08,20,15,51,21.20
2012,08,20,15,52,21.30
2012,08,20,15,53,21.40
2012,08,20,15,54,21.40
2012,08,20,15,55,21.50
2012,08,20,15,56,21.60
2012,08,20,15,57,21.90
2012,08,20,15,58,22.00
2012,08,20,15,59,22.00
2012,08,20,16,00,22.10
2012,08,20,16,01,22.10
2012,08,20,16,02,22.10
2012,08,20,16,03,22.00
2012,08,20,16,04,21.90
2012,08,20,16,05,21.70
2012,08,20,16,06,21.60
2012,08,20,16,07,21.50
2012,08,20,16,08,21.60
2012,08,20,16,09,21.40
2012,08,20,16,10,21.30
2012,08,20,16,11,21.30
2012,08,20,16,12,21.30
2012,08,20,16,13,21.30
2012,08,20,16,14,21.30
2012,08,20,16,15,21.30
2012,08,20,16,16,21.40
2012,08,20,16,17,21.60
2012,08,20,16,18,21.70
2012,08,20,16,19,21.70
2012,08,20,16,20,21.70
2012,08,20,16,21,21.80
2012,08,20,16,22,22.00
2012,08,20,16,23,22.00
2012,08,20,16,24,22.10
2012,08,20,16,25,22.10
2012,08,20,16,26,22.10
2012,08,20,16,27,22.00
2012,08,20,16,28,22.00
2012,08,20,16,29,22.10
2012,08,20,16,30,22.10
2012,08,20,16,31,22.20
2012,08,20,16,32,22.30
2012,08,20,16,33,22.40
2012,08,20,16,34,22.50
2012,08,20,16,35,22.60
2012,08,20,16,36,22.50
2012,08,20,16,37,22.60
2012,08,20,16,38,22.60
2012,08,20,16,39,22.50
2012,08,20,16,40,22.40
2012,08,20,16,41,22.40
2012,08,20,16,42,22.40
2012,08,20,16,43,22.30
2012,08,20,16,44,22.30
2012,08,20,16,45,22.30
2012,08,20,16,46,22.50
2012,08,20,16,47,22.50
2012,08,20,16,48,22.60
2012,08,20,16,49,22.80
2012,08,20,16,50,22.80
2012,08,20,16,51,22.90
2012,08,20,16,52,22.90
2012,08,20,16,53,22.80
2012,08,20,16,54,22.90
2012,08,20,16,55,22.90
2012,08,20,16,56,23.00
2012,08,20,16,57,23.10
2012,08,20,16,58,23.00
2012,08,20,16,59,22.90
2012,08,20,17,00,22.90
2012,08,20,17,01,22.90
2012,08,20,17,02,23.00
2012,08,20,17,03,23.00
2012,08,20,17,04,23.00
2012,08,20,17,05,23.00
2012,08,20,17,06,22.90
2012,08,20,17,07,22.90
2012,08,20,17,08,22.90
2012,08,20,17,09,22.90
2012,08,20,17,10,22.80
2012,08,20,17,11,22.80
2012,08,20,17,12,22.80
2012,08,20,17,13,22.90
2012,08,20,17,14,22.90
2012,08,20,17,15,22.80
2012,08,20,17,16,22.70
2012,08,20,17,17,22.60
2012,08,20,17,18,22.60
2012,08,20,17,19,22.80
2012,08,20,17,20,22.80
2012,08,20,17,21,22.70
2012,08,20,17,22,22.70
2012,08,20,17,23,22.70
2012,08,20,17,24,22.70
2012,08,20,17,25,22.70
2012,08,20,17,26,22.70
2012,08,20,17,27,22.70
2012,08,20,17,28,22.70
2012,08,20,17,29,22.70
2012,08,20,17,30,22.60
2012,08,20,17,31,22.40
2012,08,20,17,32,22.20
2012,08,20,17,33,22.00
2012,08,20,17,34,21.70
2012,08,20,17,35,21.50
2012,08,20,17,36,21.40
2012,08,20,17,37,21.30
2012,08,20,17,38,21.10
2012,08,20,17,39,21.00
2012,08,20,17,40,20.90
2012,08,20,17,41,20.90
2012,08,20,17,42,20.80
2012,08,20,17,43,20.80
2012,08,20,17,44,20.70
2012,08,20,17,45,20.60
2012,08,20,17,46,20.50
2012,08,20,17,47,20.50
2012,08,20,17,48,20.40
2012,08,20,17,49,20.40
2012,08,20,17,50,20.50
2012,08,20,17,51,20.50
2012,08,20,17,52,20.50
2012,08,20,17,53,20.40
2012,08,20,17,54,20.40
2012,08,20,17,55,20.40
2012,08,20,17,56,20.40
2012,08,20,17,57,20.40
2012,08,20,17,58,20.50
2012,08,20,17,59,20.60
2012,08,20,18,00,20.70
2012,08,20,18,01,20.70
2012,08,20,18,02,20.70
2012,08,20,18,03,20.70
2012,08,20,18,04,20.70
2012,08,20,18,05,20.60
2012,08,20,18,06,20.60
2012,08,20,18,07,20.50
2012,08,20,18,08,20.30
2012,08,20,18,09,20.10
2012,08,20,18,10,19.90
2012,08,20,18,11,19.80
2012,08,20,18,12,19.70
2012,08,20,18,13,19.60
2012,08,20,18,14,19.60
2012,08,20,18,15,19.50
2012,08,20,18,16,19.50
2012,08,20,18,17,19.60
2012,08,20,18,18,19.60
2012,08,20,18,19,19.60
2012,08,20,18,20,19.60
2012,08,20,18,21,19.60
2012,08,20,18,22,19.60
2012,08,20,18,23,19.60
2012,08,20,18,24,19.60
2012,08,20,18,25,19.60
2012,08,20,18,26,19.60
2012,08,20,18,27,19.50
2012,08,20,18,28,19.60
2012,08,20,18,29,19.60
2012,08,20,18,30,19.70
2012,08,20,18,31,19.70
2012,08,20,18,32,19.80
2012,08,20,18,33,19.90
2012,08,20,18,34,19.90
2012,08,20,18,35,20.10
2012,08,20,18,36,20.20
2012,08,20,18,37,20.20
2012,08,20,18,38,20.20
2012,08,20,18,39,20.30
2012,08,20,18,40,20.40
2012,08,20,18,41,20.50
2012,08,20,18,42,20.60
2012,08,20,18,43,20.70
2012,08,20,18,44,20.80
2012,08,20,18,45,20.80
2012,08,20,18,46,20.90
2012,08,20,18,47,20.90
2012,08,20,18,48,21.00
2012,08,20,18,49,21.10
2012,08,20,18,50,21.20
2012,08,20,18,51,21.20
2012,08,20,18,52,21.30
2012,08,20,18,53,21.30
2012,08,20,18,54,21.30
2012,08,20,18,55,21.30
2012,08,20,18,56,21.30
2012,08,20,18,57,21.30
2012,08,20,18,58,21.30
2012,08,20,18,59,21.30
2012,08,20,19,00,21.30
2012,08,20,19,01,21.30
2012,08,20,19,02,21.30
2012,08,20,19,03,21.30
2012,08,20,19,04,21.30
2012,08,20,19,05,21.30
2012,08,20,19,06,21.30
2012,08,20,19,07,21.30
2012,08,20,19,08,21.30
2012,08,20,19,09,21.30
2012,08,20,19,10,21.30
2012,08,20,19,11,21.30
2012,08,20,19,12,21.30
2012,08,20,19,13,21.30
2012,08,20,19,14,21.30
2012,08,20,19,15,21.20
2012,08,20,19,16,21.20
2012,08,20,19,17,21.20
2012,08,20,19,18,21.20
2012,08,20,19,19,21.10
2012,08,20,19,20,21.10
2012,08,20,19,21,21.00
2012,08,20,19,22,21.00
2012,08,20,19,23,21.00
2012,08,20,19,24,20.90
2012,08,20,19,25,20.90
2012,08,20,19,26,20.90
2012,08,20,19,27,20.90
2012,08,20,19,28,20.90
2012,08,20,19,29,20.90
2012,08,20,19,30,20.90
2012,08,20,19,31,20.90
2012,08,20,19,32,20.90
2012,08,20,19,33,20.90
2012,08,20,19,34,20.90
2012,08,20,19,35,20.90
